This is the latest recevied weather packets stored in our database for station/object DR0T. If no packets are shown the sender has not sent any weather packets the latest 1 day(s).
| Time | Temp. | Humidity | Pressure | Rain* | Wind** | Luminosity | Snow |
|---|---|---|---|---|---|---|---|
| 1778082741 | 13.89° C | 74% | 1007.2 hPa | 0 mm | - | - | - |
| 1778082440 | 13.89° C | 74% | 1007.3 hPa | 0 mm | - | - | - |
| 1778080052 | 13.89° C | 73% | 1007.1 hPa | 0 mm | - | - | - |
| 1778079749 | 13.89° C | 72% | 1007 hPa | 0 mm | - | - | - |
| 1778079448 | 13.89° C | 72% | 1007 hPa | 0 mm | - | - | - |
| 1778079148 | 13.89° C | 72% | 1007 hPa | 0 mm | - | - | - |
| 1778078544 | 14.44° C | 72% | 1006.8 hPa | 0 mm | - | - | - |
| 1778077640 | 14.44° C | 71% | 1006.8 hPa | 0 mm | - | - | - |
| 1778077040 | 14.44° C | 71% | 1006.8 hPa | 0 mm | - | - | - |
| 1778075553 | 14.44° C | 70% | 1007 hPa | 0 mm | - | - | - |
| 1778075250 | 13.89° C | 69% | 1006.9 hPa | 0 mm | - | - | - |
| 1778074346 | 14.44° C | 70% | 1006.9 hPa | 0 mm | - | - | - |
| 1778074045 | 14.44° C | 70% | 1006.9 hPa | 0 mm | - | - | - |
| 1778072538 | 14.44° C | 70% | 1006.9 hPa | 0 mm | - | - | - |
| 1778071936 | 15.56° C | 70% | 1006.9 hPa | 0 mm | - | - | - |
| 1778070751 | 14.44° C | 72% | 1006.8 hPa | 0 mm | - | - | - |
| 1778070153 | 14.44° C | 72% | 1006.9 hPa | 0 mm | - | - | - |
| 1778069247 | 13.89° C | 72% | 1006.9 hPa | 0 mm | - | - | - |
| 1778068944 | 13.89° C | 73% | 1006.9 hPa | 0 mm | - | - | - |
| 1778067437 | 13.33° C | 78% | 1007.2 hPa | 0 mm | - | - | - |
| 1778067136 | 13.33° C | 79% | 1007.3 hPa | 0 mm | - | - | - |
| 1778065955 | 13.89° C | 77% | 1007.3 hPa | 0 mm | - | - | - |
| 1778065650 | 13.89° C | 76% | 1007.3 hPa | 0 mm | - | - | - |
| 1778065047 | 13.33° C | 78% | 1007.3 hPa | 0 mm | - | - | - |
| 1778064746 | 13.89° C | 77% | 1007.3 hPa | 0 mm | - | - | - |
* Rain latest hour (hover to see other rain measurements)
** Current wind speed in m/s (hover to see current wind gust speed)